Time,TemperatureF,DewpointF,PressureIn,WindDirection,WindDirectionDegrees,WindSpeedMPH,WindSpeedGustMPH,Humidity,HourlyPrecipIn,Conditions,Clouds,dailyrainin,SoftwareType,DateUTC
2013-05-12 00:04:00,41.3,21.0,30.18,NNW,330,9.0,0.0,41,0.00,,,-99.99,,2013-05-12 05:04:00,
2013-05-12 00:34:00,40.8,21.0,30.18,NNW,330,9.0,0.0,41,0.00,,,-99.99,,2013-05-12 05:34:00,
2013-05-12 01:04:00,39.9,23.0,30.19,NNW,340,8.0,0.0,45,0.00,,,-99.99,,2013-05-12 06:04:00,
2013-05-12 01:34:00,39.3,23.0,30.19,NNW,340,8.0,0.0,45,0.00,,,-99.99,,2013-05-12 06:34:00,
2013-05-12 02:04:00,38.8,23.0,30.20,NW,320,5.0,0.0,48,0.00,,,-99.99,,2013-05-12 07:04:00,
2013-05-12 02:34:00,38.5,23.0,30.20,NW,320,5.0,0.0,48,0.00,,,-99.99,,2013-05-12 07:34:00,
2013-05-12 03:04:00,38.6,23.0,30.19,NW,310,6.0,0.0,55,0.00,,,-99.99,,2013-05-12 08:04:00,
2013-05-12 03:34:00,37.6,23.0,30.19,NW,310,6.0,0.0,55,0.00,,,-99.99,,2013-05-12 08:34:00,
2013-05-12 04:04:00,37.1,23.0,30.19,WNW,290,5.0,0.0,59,0.00,,,-99.99,,2013-05-12 09:04:00,
2013-05-12 04:34:00,36.4,23.0,30.19,WNW,290,5.0,0.0,59,0.00,,,-99.99,,2013-05-12 09:34:00,
2013-05-12 05:04:00,36.2,23.0,30.19,NW,310,5.0,0.0,59,0.00,,,-99.99,,2013-05-12 10:04:00,
2013-05-12 05:34:00,35.7,23.0,30.19,NW,310,5.0,0.0,59,0.00,,,-99.99,,2013-05-12 10:34:00,
2013-05-12 06:04:00,35.7,23.0,30.20,NW,310,6.0,0.0,59,0.00,,,-99.99,,2013-05-12 11:04:00,
2013-05-12 06:34:00,36.0,23.0,30.20,NW,310,6.0,0.0,59,0.00,,,-99.99,,2013-05-12 11:34:00,
2013-05-12 07:04:00,41.9,24.0,30.21,NW,310,6.0,0.0,60,0.00,,,-99.99,,2013-05-12 12:04:00,
2013-05-12 07:34:00,43.0,24.0,30.21,NW,310,6.0,0.0,60,0.00,,,-99.99,,2013-05-12 12:34:00,
2013-05-12 08:04:00,48.0,23.0,30.22,NW,320,8.0,0.0,45,0.00,,,-99.99,,2013-05-12 13:04:00,
2013-05-12 08:34:00,45.4,23.0,30.22,NW,320,8.0,0.0,45,0.00,,,-99.99,,2013-05-12 13:34:00,
2013-05-12 09:04:00,42.3,21.0,30.23,NW,320,13.0,0.0,39,0.00,,,-99.99,,2013-05-12 14:04:00,
2013-05-12 09:34:00,42.7,21.0,30.23,NW,320,13.0,0.0,39,0.00,,,-99.99,,2013-05-12 14:34:00,
2013-05-12 10:04:00,44.0,21.0,30.22,North,350,12.0,0.0,36,0.00,,,-99.99,,2013-05-12 15:04:00,
2013-05-12 10:34:00,44.3,21.0,30.22,North,350,12.0,0.0,36,0.00,,,-99.99,,2013-05-12 15:34:00,
2013-05-12 11:04:00,46.7,21.0,30.21,NW,320,12.0,23.0,34,0.00,,,-99.99,,2013-05-12 16:04:00,
2013-05-12 11:34:00,47.6,21.0,30.21,NW,320,12.0,23.0,34,0.00,,,-99.99,,2013-05-12 16:34:00,
2013-05-12 12:04:00,47.1,19.0,30.20,NW,320,14.0,21.0,29,0.00,,,-99.99,,2013-05-12 17:04:00,
2013-05-12 12:34:00,48.5,19.0,30.20,NW,320,14.0,21.0,29,0.00,,,-99.99,,2013-05-12 17:34:00,
2013-05-12 13:04:00,49.2,19.0,30.18,NNW,340,13.0,0.0,25,0.00,,,-99.99,,2013-05-12 18:04:00,
2013-05-12 13:34:00,50.3,19.0,30.18,NNW,340,13.0,0.0,25,0.00,,,-99.99,,2013-05-12 18:34:00,
2013-05-12 14:04:00,51.7,17.0,30.16,NW,320,8.0,0.0,23,0.00,,,-99.99,,2013-05-12 19:04:00,
2013-05-12 14:34:00,52.8,17.0,30.16,NW,320,8.0,0.0,23,0.00,,,-99.99,,2013-05-12 19:34:00,
2013-05-12 15:04:00,53.6,19.0,30.14,NNW,330,8.0,16.0,22,0.00,,,-99.99,,2013-05-12 20:04:00,
2013-05-12 15:34:00,55.1,19.0,30.14,NNW,330,8.0,16.0,22,0.00,,,-99.99,,2013-05-12 20:34:00,
2013-05-12 16:04:00,55.1,19.0,30.13,WNW,290,9.0,17.0,22,0.00,,,-99.99,,2013-05-12 21:04:00,
2013-05-12 16:34:00,56.1,19.0,30.13,WNW,290,9.0,17.0,22,0.00,,,-99.99,,2013-05-12 21:34:00,
2013-05-12 17:04:00,55.7,17.0,30.12,North,350,12.0,26.0,20,0.00,,,-99.99,,2013-05-12 22:04:00,
2013-05-12 17:34:00,59.5,17.0,30.12,North,350,12.0,26.0,20,0.00,,,-99.99,,2013-05-12 22:34:00,
2013-05-12 18:04:00,60.1,17.0,30.11,NNW,330,16.0,20.0,20,0.00,,,-99.99,,2013-05-12 23:04:00,
2013-05-12 18:34:00,61.2,17.0,30.11,NNW,330,16.0,20.0,20,0.00,,,-99.99,,2013-05-12 23:34:00,
2013-05-12 19:04:00,59.9,15.0,30.09,NNW,330,12.0,24.0,19,0.00,,,-99.99,,2013-05-13 00:04:00,
2013-05-12 19:34:00,59.7,15.0,30.09,NNW,330,12.0,24.0,19,0.00,,,-99.99,,2013-05-13 00:34:00,
2013-05-12 20:04:00,54.7,15.0,30.09,NNW,330,9.0,0.0,20,0.00,,,-99.99,,2013-05-13 01:04:00,
2013-05-12 20:34:00,53.8,15.0,30.09,NNW,330,9.0,0.0,20,0.00,,,-99.99,,2013-05-13 01:34:00,
2013-05-12 21:04:00,53.3,15.0,30.10,WNW,300,3.0,0.0,22,0.00,,,-99.99,,2013-05-13 02:04:00,
2013-05-12 21:34:00,52.8,15.0,30.10,WNW,300,3.0,0.0,22,0.00,,,-99.99,,2013-05-13 02:34:00,
2013-05-12 22:04:00,50.8,17.0,30.11,North,0,0.0,0.0,25,0.00,,,-99.99,,2013-05-13 03:04:00,
2013-05-12 22:34:00,50.3,17.0,30.11,North,0,0.0,0.0,25,0.00,,,-99.99,,2013-05-13 03:34:00,
2013-05-12 23:04:00,49.3,19.0,30.11,East,80,5.0,0.0,29,0.00,,,-99.99,,2013-05-13 04:04:00,
2013-05-12 23:34:00,49.1,19.0,30.11,East,80,5.0,0.0,29,0.00,,,-99.99,,2013-05-13 04:34:00,